Location: �bnet
(46.9957°N, 8.4908°E)
Time: 00:39:07
(UTC+00:00)

Cosmos 1867 - Pass Details

Date: 11 May 2021
Orbit: 773 x 802 km, 65.0° (Epoch: 23 June)

Event Time Altitude Azimuth Distance (km) Brightness Sun altitude
Exits shadow 23:25:58 70° 202° (SSW) 844 3.4 -24.9°
Maximum altitude 23:26:36 85° 125° (SE) 804 3.4 -24.9°
Drops below altitude 10° 23:32:06 10° 38° (NE) 2,381 6.7 -24.8°
Sets 23:34:33 0° 38° (NE) 3,317 7.6 -24.8°
